Location: Argonnex
(45.9500°N, 6.1333°E)
Time: 14:26:46
(UTC+00:00)

Cosmos 2266 Rocket - Pass Details

Date: 10 August 2024
Orbit: 933 x 1007 km, 82.9° (Epoch: 14 September)

Event Time Altitude Azimuth Distance (km) Brightness Sun altitude
Rises 01:39:23 0° 349° (NNW) 3,602 7.7 -23.0°
Reaches altitude 10° 01:41:53 10° 347° (NNW) 2,653 6.9 -22.8°
Maximum altitude 01:47:51 67° 266° (W) 1,015 3.9 -22.2°
Enters shadow 01:49:45 44° 202° (SSW) 1,280 4.1 -22.1°
